Tyler, TX

7:26 AM CDT on June 26, 2017 (GMT -0500)
Tyler Pounds

Weather History for KTYR - February, 2012

Change the Weather History Date:

Saturday, February 18, 2012

  Actual Average Record
Temperature  
Mean Temperature 49 °F 51 °F  
Max Temperature 53 °F 61 °F 86 °F (1986)
Min Temperature 45 °F 41 °F 5 °F (1910)
Degree Days  
Heating Degree Days 16 14  
Month to date heating degree days 260 284  
Since 1 July heating degree days 1481 1762  
Cooling Degree Days 0 0  
Month to date cooling degree days 7 0  
Year to date cooling degree days 9 4  
Moisture  
Dew Point 46 °F    
Average Humidity 85    
Maximum Humidity 93    
Minimum Humidity 77    
Precipitation  
Precipitation 1.81 in 0.15 in 2.16 in (1988)
Month to date precipitation 2.73 2.43  
Year to date precipitation 5.98 5.49  
Snow  
Snow 0.00 in - - ()
Month to date snowfall 0.0  
Since 1 July snowfall 0.0  
Snow Depth 0.00 in    
Sea Level Pressure  
Sea Level Pressure 29.92 in    
Wind  
Wind Speed 12 mph (NNE)    
Max Wind Speed 23 mph    
Max Gust Speed 30 mph    
Visibility 6 miles    
Events Rain    
T = Trace of Precipitation, MM = Missing Value Source: NWS Daily Summary

Daily Weather History Graph

Daily Weather History Graph

Search for Another Location

Airport or City:

Trip Planner

Search our weather history database for the weather conditions in past years. The results will help you decide how hot, cold, wet, or windy it might be!

Date:

Astronomy

Feb. 18, 2012 Rise Set
Actual Time 7:01 AM CST 6:09 PM CST
Civil Twilight 6:36 AM CST 6:34 PM CST
Nautical Twilight 6:08 AM CST 7:03 PM CST
Astronomical Twilight 5:39 AM CST 7:32 PM CST
Moon 4:33 AM CST (2/18) 3:15 PM CST (2/18)
Length of Visible Light 11h 58m
Length of Day
11h 08m
Waning Crescent, 11% of the Moon is Illuminated
Feb 18
Waning Crescent
Feb 21
New
Feb 29
First Quarter
Mar 8
Full
Mar 14
Last Quarter

Hourly Weather History & Observations

Time (CST) Temp. Windchill Dew Point Humidity Pressure Visibility Wind Dir Wind Speed Gust Speed Precip Events Conditions
12:53 AM 51.1 °F - 48.0 °F 89% 29.98 in 7.0 mi ENE 9.2 mph - 0.04 in Rain Light Rain
1:38 AM 50.0 °F - 48.2 °F 94% 29.97 in 9.0 mi ENE 10.4 mph - 0.04 in Rain Light Rain
1:53 AM 50.0 °F - 46.9 °F 89% 29.94 in 9.0 mi East 11.5 mph - 0.04 in Rain Light Rain
2:22 AM 50.0 °F - 46.4 °F 87% 29.97 in 9.0 mi NE 5.8 mph - 0.01 in Rain Light Rain
2:53 AM 51.1 °F - 48.0 °F 89% 29.93 in 4.0 mi NNE 6.9 mph - 0.06 in Rain Rain
3:53 AM 50.0 °F - 48.0 °F 93% 29.96 in 3.0 mi North 5.8 mph - 0.21 in Rain Heavy Rain
4:13 AM 50.0 °F - 48.2 °F 94% 29.97 in 2.5 mi NNE 5.8 mph - 0.15 in Rain Heavy Rain
4:28 AM 48.2 °F - 48.2 °F 100% 29.97 in 2.5 mi NNE 5.8 mph - 0.26 in Rain Heavy Rain
4:38 AM 48.2 °F - 48.2 °F 100% 29.96 in 2.5 mi NE 8.1 mph - 0.33 in Rain Heavy Rain
4:44 AM 48.2 °F - 48.2 °F 100% 29.95 in 3.0 mi NE 10.4 mph - 0.37 in Rain Heavy Rain
4:53 AM 48.9 °F - 48.0 °F 97% 29.95 in 3.0 mi NE 10.4 mph - 0.42 in Rain Heavy Rain
5:26 AM 48.2 °F - 46.4 °F 93% 29.97 in 5.0 mi NNE 10.4 mph - 0.12 in Rain Rain
5:53 AM 48.9 °F - 46.9 °F 93% 29.98 in 5.0 mi North 8.1 mph - 0.18 in Rain Rain
6:44 AM 48.2 °F - 46.4 °F 93% 29.99 in 4.0 mi NE 12.7 mph - 0.13 in Rain Rain
6:53 AM 48.9 °F - 46.0 °F 90% 29.96 in 4.0 mi NE 16.1 mph 23.0 mph 0.15 in Rain Rain
7:13 AM 48.2 °F - 46.4 °F 93% 29.96 in 4.0 mi NE 17.3 mph 26.5 mph 0.06 in Rain Rain
7:25 AM 48.2 °F - 46.4 °F 93% 29.96 in 6.0 mi NE 16.1 mph 23.0 mph 0.06 in Rain Light Rain
7:53 AM 48.0 °F - 45.0 °F 89% 29.91 in 6.0 mi ENE 19.6 mph 27.6 mph 0.09 in Rain Light Rain
8:13 AM 48.2 °F - 44.6 °F 87% 29.90 in 8.0 mi ENE 16.1 mph 27.6 mph 0.00 in Rain Light Rain
8:28 AM 48.2 °F - 44.6 °F 87% 29.94 in 10.0 mi NNE 12.7 mph 24.2 mph 0.00 in   Overcast
8:53 AM 48.2 °F - 44.6 °F 87% 29.96 in 5.0 mi NE 9.2 mph - N/A Rain Rain
9:53 AM 48.0 °F - 45.0 °F 89% 29.91 in 7.0 mi NE 15.0 mph - 0.03 in Rain Light Rain
10:02 AM 48.2 °F - 44.6 °F 87% 29.91 in 10.0 mi ENE 12.7 mph - 0.00 in Rain Light Rain
10:53 AM 50.0 °F - 46.0 °F 86% 29.88 in 10.0 mi ENE 17.3 mph 25.3 mph 0.00 in   Overcast
11:53 AM 51.8 °F - 46.4 °F 82% 29.87 in 10.0 mi ENE 16.1 mph 23.0 mph N/A   Overcast
12:29 PM 51.8 °F - 48.2 °F 88% 29.86 in 9.0 mi NE 9.2 mph 18.4 mph 0.01 in Rain Light Rain
12:53 PM 52.0 °F - 48.0 °F 86% 29.86 in 10.0 mi ENE 11.5 mph - 0.01 in Rain Light Rain
1:30 PM 51.8 °F - 48.2 °F 88% 29.81 in 10.0 mi ENE 13.8 mph - 0.03 in   Overcast
1:49 PM 53.6 °F - 48.2 °F 82% 29.81 in 10.0 mi ENE 15.0 mph 21.9 mph 0.03 in   Overcast
1:53 PM 53.1 °F - 48.0 °F 83% 29.81 in 10.0 mi ENE 17.3 mph 24.2 mph 0.03 in   Overcast
2:33 PM 51.8 °F - 46.4 °F 82% 29.82 in 10.0 mi ENE 15.0 mph 20.7 mph N/A   Overcast
2:53 PM 53.6 °F - 46.4 °F 77% 29.79 in 10.0 mi ENE 11.5 mph - N/A   Overcast
3:49 PM 50.0 °F - 46.4 °F 87% 29.83 in 2.5 mi North 9.2 mph - 0.09 in Rain Rain
3:53 PM 50.0 °F - 46.9 °F 89% 29.84 in 3.0 mi North 5.8 mph - 0.09 in Rain Light Rain
4:05 PM 50.0 °F - 46.4 °F 87% 29.83 in 2.0 mi North 10.4 mph - N/A Rain Rain
4:21 PM 50.0 °F - 48.2 °F 94% 29.84 in 3.0 mi North 8.1 mph - 0.05 in Rain Light Rain
4:41 PM 50.0 °F - 46.4 °F 87% 29.84 in 3.0 mi North 12.7 mph - 0.10 in Rain Rain
4:53 PM 50.0 °F - 46.9 °F 89% 29.84 in 5.0 mi North 12.7 mph - 0.10 in Rain Light Rain
5:03 PM 50.0 °F - 48.2 °F 94% 29.84 in 4.0 mi North 13.8 mph - 0.01 in Rain Light Rain
5:53 PM 48.9 °F - 46.0 °F 90% 29.86 in 6.0 mi North 13.8 mph - 0.07 in Rain Light Rain
6:17 PM 48.2 °F - 46.4 °F 93% 29.88 in 5.0 mi North 12.7 mph - 0.02 in Rain Rain
6:25 PM 48.2 °F - 46.4 °F 93% 29.88 in 4.0 mi North 12.7 mph - 0.04 in Rain Rain
6:32 PM 48.2 °F - 46.4 °F 93% 29.88 in 5.0 mi North 12.7 mph - 0.04 in Rain Light Rain
6:42 PM 48.2 °F - 46.4 °F 93% 29.89 in 6.0 mi North 13.8 mph 19.6 mph 0.05 in Rain Light Rain
6:53 PM 48.0 °F - 45.0 °F 89% 29.89 in 6.0 mi North 16.1 mph 27.6 mph 0.06 in Rain Light Rain
7:15 PM 46.4 °F 40.7 °F 44.6 °F 93% 29.90 in 5.0 mi North 12.7 mph - 0.02 in Rain Light Rain
7:53 PM 46.9 °F - 44.1 °F 90% 29.92 in 5.0 mi North 11.5 mph - 0.08 in Rain Rain
8:41 PM 46.4 °F 40.7 °F 44.6 °F 93% 29.94 in 6.0 mi North 12.7 mph 21.9 mph 0.08 in Rain Rain
8:53 PM 46.0 °F 40.2 °F 44.1 °F 93% 29.94 in 6.0 mi North 12.7 mph - 0.10 in Rain Rain
9:11 PM 46.4 °F 40.7 °F 42.8 °F 87% 29.95 in 7.0 mi North 12.7 mph 21.9 mph 0.01 in Rain Light Rain
9:28 PM 46.4 °F 40.7 °F 42.8 °F 87% 29.96 in 9.0 mi North 12.7 mph - 0.02 in Rain Light Rain
9:53 PM 46.0 °F 40.2 °F 43.0 °F 89% 29.97 in 10.0 mi North 12.7 mph - 0.02 in Rain Light Rain
10:27 PM 46.4 °F 41.1 °F 42.8 °F 87% 29.98 in 9.0 mi NNE 11.5 mph - 0.01 in Rain Light Rain
10:37 PM 46.4 °F 41.1 °F 42.8 °F 87% 29.97 in 9.0 mi NNE 11.5 mph - N/A Rain Light Rain
10:53 PM 46.0 °F 41.9 °F 43.0 °F 89% 29.98 in 9.0 mi North 8.1 mph - 0.02 in Rain Light Rain
11:22 PM 46.4 °F 42.4 °F 42.8 °F 87% 30.00 in 10.0 mi North 8.1 mph - 0.00 in Rain Light Rain
11:44 PM 44.6 °F 40.2 °F 42.8 °F 93% 30.01 in 9.0 mi North 8.1 mph - 0.00 in Rain Light Rain
11:53 PM 45.0 °F 41.2 °F 43.0 °F 93% 30.01 in 9.0 mi NNW 6.9 mph - 0.00 in Rain Light Rain